Location: ???????
(55.4362°N, 38.1183°E)
Time: 14:46:24
(UTC+00:00)

Oscar 11 - Pass Details

Date: 03 December 2021
Orbit: 611 x 625 km, 97.6° (Epoch: 25 January)

Event Time Altitude Azimuth Distance (km) Brightness Sun altitude
Rises 01:23:19 0° 29° (NNE) 2,923 11.0 -34.1°
Reaches altitude 10° 01:27:09 10° 63° (ENE) 2,006 10.4 -33.6°
Maximum altitude 01:28:34 11° 83° (E) 1,910 10.4 -33.4°
Drops below altitude 10° 01:30:00 10° 102° (ESE) 1,998 10.4 -33.2°
Sets 01:33:46 0° 136° (SE) 2,893 10.9 -32.6°
